Regional Weather Roundup
Issued by NWS Austin/San Antonio, TX

Home | Current Version | Previous Version | Text Only | Print | Product List | Glossary On
Versions: 1 2 3 4 5 6 7 8 9 10 11 12 13 14 15 16 17 18 19 20 21 22 23 24 25 26 27 28 29 30 31 32 33 34 35 36 37 38 39 40 41 42 43 44 45 46 47 48 49 50
000
ASUS44 KEWX 271710
RWREWX
SOUTH TEXAS REGIONAL WEATHER ROUNDUP
NATIONAL WEATHER SERVICE AUSTIN/SAN ANTONIO TX
1200 PM CDT SUN MAY 27 2018

NOTE: "FAIR" INDICATED FEW OR NO CLOUDS BELOW 12,000 FEET WITH NO
SIGNIFICANT WEATHER AND/OR OBSTRUCTIONS TO VISIBILITY.

* - THESE STATIONS ARE NOT NWS OR FAA STATIONS...AND ARE NOT SUBJECT
    TO NWS AND FAA QUALITY CONTROL.

TXZ171-172-183>190-271800-
TEXAS HILL COUNTRY AND EDWARDS PLATEAU

CITY           SKY/WX    TMP DP  RH WIND       PRES   REMARKS
JUNCTION       SUNNY     92  65  40 SW7       29.87F HX  94
*LLANO           N/A    N/A N/A N/A MISG        N/A
BURNET         SUNNY     89  66  46 S7        29.90S HX  91
*HORSESHOE BAY SUNNY     91  62  37 SE7       29.87S HX  92
*KERRVILLE     SUNNY     89  69  52 S8G16     29.89S HX  93
*FREDERICKSBRG SUNNY     88  63  43 S10G16    29.89S
*ROCKSPRINGS   SUNNY     88  63  42 S13       29.94F
*BOERNE STAGE  SUNNY     86  63  45 SE7       29.90S
*CASTROVILLE   SUNNY     87  67  50 SE6       29.87S HX  90
HONDO          SUNNY     87  73  62 SE3       29.86S HX  94
*UVALDE        SUNNY     87  69  55 SE7       29.85S HX  91
DEL RIO        SUNNY     94  66  39 SE16      29.78F HX  97
LAUGHLIN AFB   MOSUNNY   94  64  36 S13       29.79F HX  96
CARRIZO SPRGS  SUNNY     91  68  46 S8        29.80S HX  95
*EAGLE PASS    SUNNY     95  64  36 SE10G21   29.80F HX  97
*FAITH RANCH   SUNNY     95  66  38 SE10G16   29.81S HX  98
$$

TXZ173-191>194-202-209-217>225-228-271800-
CENTRAL AND SOUTH CENTRAL TEXAS

CITY           SKY/WX    TMP DP  RH WIND       PRES   REMARKS
GEORGETOWN     SUNNY     90  68  48 VRB6      29.88S HX  94
AUSTIN/BERGSTM MOSUNNY   89  70  53 SE8       29.85S HX  94
AUSTIN/MABRY   SUNNY     90  68  48 VRB5      29.86F HX  94
*AUSTIN/EXEC   SUNNY     86  72  62 MISG      29.86F HX  92
*LAGO VISTA    SUNNY     90  64  42 S3        29.89R HX  91
SAN MARCOS     NOT AVBL
NEW BRAUNFELS  SUNNY     88  68  51 VRB6      29.84S HX  91
RANDOLPH AFB   MOSUNNY   87  69  53 S8        29.86S HX  91
PT SAN ANTONIO SUNNY     87  69  53 SE7       29.83F HX  91
SAN ANTONIO    MOSUNNY   89  66  46 SE7       29.86F HX  91
STINSON FIELD  SUNNY     90  71  53 VRB6      29.83F HX  96
*LA GRANGE     SUNNY     88  74  62 S3        29.84S HX  97
*GIDDINGS      SUNNY     84  71  63 S5        29.87S
*GONZALES      SUNNY     89  72  57 SE6       29.84S HX  96
$$

TXZ163>164-176>182-195>201-210>213-226-227-235-271800-
SOUTHEAST TEXAS

CITY           SKY/WX    TMP DP  RH WIND       PRES   REMARKS
COLLEGE STN    SUNNY     87  73  62 VRB5      29.85F HX  94
*BRYAN         SUNNY     85  73  65 SW3       29.87S HX  92
*CALDWELL      SUNNY     87  73  62 SW3       29.86F HX  94
*CROCKETT      LGT RAIN  86  72  62 CALM      29.88F HX  92
*BRENHAM       SUNNY     88  72  58 S5        29.86F HX  94
HUNTSVILLE     SUNNY     86  72  62 SW5       29.86F HX  92
CONROE         MOSUNNY   86  73  65 SW3       29.86S HX  93
HOUSTON BUSH   FAIR      87  74  64 VRB3      29.84F HX  95
HOUSTON HOBBY  PTSUNNY   86  75  69 CALM      29.84S HX  95
*HOUSTON SW AP PTSUNNY   86  74  68 SW3       29.86S HX  94
PEARLAND       FAIR      86  73  65 S6        29.86S HX  93
HOUSTON HOOKS  FAIR      87  75  67 CALM      29.85S HX  96
ELLINGTON FLD  MOSUNNY   86  75  70 CALM      29.86S HX  95
SUGAR LAND     FAIR      88  73  61 SW6       29.84S HX  95
*HOUSTON EXEC    N/A     88  73  62 W6        29.86S HX  96
*CLEVELAND MUN FAIR      86  71  61 CALM      29.87S HX  92
*WHARTON       SUNNY     87  70  57 CALM      29.85F HX  91
*COLUMBUS      FAIR      87  71  58 CALM      29.86S HX  92
*EAGLE LAKE    MOSUNNY   88  74  62 SE5       29.85S HX  96
$$

TXZ214>216-236>238-271800-
THE UPPER TEXAS COAST

CITY           SKY/WX    TMP DP  RH WIND       PRES   REMARKS
*ORANGE        FAIR      84  76  77 E5        29.87S HX  94
PORT ARTHUR    PTSUNNY   86  73  65 NW7       29.84S HX  93
GALVESTON      PTSUNNY   86  74  67 S8        29.85S HX  94
ANGLETON       FAIR      88  72  58 SW3       29.85R HX  94
*BAY CITY      SUNNY     87  72  59 CALM      29.84S HX  93
PALACIOS       SUNNY     87  74  64 S9        29.84S HX  95
$$

TXZ229>234-239>247-271800-
TEXAS COASTAL BEND AND RIO GRANDE PLAINS

CITY           SKY/WX    TMP DP  RH WIND       PRES   REMARKS
VICTORIA       MOSUNNY   91  69  48 SE8       29.84S HX  96
*BEEVILLE      SUNNY     88  71  56 S7G16     29.84R HX  94
ROCKPORT       SUNNY     88  73  61 SE13      29.83R HX  95
*PORT ARANSAS    N/A    N/A N/A N/A MISG        N/A
*PORT LAVACA   SUNNY     88  70  56 S5        29.84S HX  92
*INGLESIDE     MOSUNNY   89  74  61 S9        29.83R HX  98
CORPUS CHRISTI MOSUNNY   88  74  63 S6        29.82S HX  96
CORPUS NAS     SUNNY     90  75  61 S13       29.82S HX 100
*ROBSTOWN      SUNNY     87  73  62 S7        29.83S HX  94
ALICE          SUNNY     91  68  46 S13       29.81S HX  95
KINGSVILLE NAS SUNNY     92  70  48 S10       29.81S HX  97
COTULLA        SUNNY     93  67  42 S10G17    29.81F HX  96
LAREDO         SUNNY     96  68  39 SE12      29.80F HX 101
$$

TXZ248>255-271800-
DEEP SOUTH TEXAS

CITY           SKY/WX    TMP DP  RH WIND       PRES   REMARKS
BROWNSVILLE    FAIR      94  69  44 S8        29.81S HX  99
PORT ISABEL    FAIR      92  68  45 SE13      29.80F HX  96
*SOUTH PADRE   NOT AVBL
HARLINGEN      SUNNY     92  71  50 SE10      29.80S HX  98
*HEBBRONVILLE  SUNNY     89  64  42 S8        29.83S HX  90
MCALLEN        SUNNY     94  71  47 S8        29.80F HX 101
*WESLACO       NOT AVBL
FALFURRIAS     SUNNY     94  67  41 S7        29.81S HX  97
EDINBURG       FAIR      93  68  43 SE8       29.80F HX  97
*ZAPATA        FAIR     N/A N/A N/A SE10      29.79S
$$

TXZ213>215-236>238-242>244-246-247-251-254-255-271800-
CMAN STATIONS

STATION/POSITION TIME  TEMP    WIND        PRES    WAVE
                       AIR SEA DIR/SP/G            HT/PER
                 (UTC) (F)     (DEG/KT/KT) (MB)    (FT/S)
SABINE PASS      1648   82 88  140/  6/  8 1012.3
SEA RIM ST PARK  1700   81     110/  4/  6 1011.4
NORTH JETTY/GLS  1642   81 83  180/  6/  7 1010.3
EAGLE POINT      1648   83 87  110/  4/  5 1010.7
MORGANS POINT    1648   85 84  130/  3/  5 1010.7
PORT O`CONNOR    1642   82 85  160/  6/  8 1010.3
PORT ARANSAS     1700   81 84  150/  8/  9 1010.4
MALAQUITE BEACH  1642   81 84  140/  9/ 11 1009.8
BAFFIN BAY       1642   84 84  130/  9/ 12 1010.1
PORT ISABEL      1642   85 84  130/ 13/ 15 1009.7
$$



USA.gov is the U.S. government's official web portal to all federal, state and local government web resources and services.